71P/Clark

Epoch 2006 May 25.0 TT = JDT 2453880.5  

T 2006 June 6.80366 TT                                  Nakano

q   1.5621185            (2000.0)            P               Q

n   0.17861370     Peri.  208.75128     -0.03349574     +0.98926182

a   3.1226708      Node    59.65474     -0.88253548     +0.03752755

e   0.4997492      Incl.    9.48846     -0.46905134     -0.14125416

P   5.52

From 259 observations after near pelihelion in 1995 to 2006,

   mean residual 0".80.

   Nongravitational parameters A1 = +1.39 +/- 0.02, A2 = -0.3862 +/- 0.0011,

   A3 = -0.15 +/- 0.01.

Residuals in seconds of arc 

1995/                     951025 897 (3.1+  0.3+)   051222 568  1.2+  0.2+  

950426 360  1.4-  1.7+    951027 693  0.9-  1.4+    051222 568  0.2+  1.1+  

950426 360  1.4-  1.6+    951027 693  0.3-  0.5+    051222 568  0.5+  0.3+  

950502 801  1.0-  0.9+    951027 693  1.1-  1.9+    051222 568 (2.3+  0.3+) 

950502 801  0.9-  1.0+    951116 360  0.2+  0.6+    051222 568  1.5+  0.4+  

950503 323  1.8-  0.7+    951116 360  0.3+  0.9+    051222 568 (2.5+  0.1+) 

950504 801  0.7-  0.9+    951117 691  0.8-  0.9+    051222 568  1.8+  0.1+  

950504 801  0.3-  0.2-    951117 691  1.0-  0.9+    051224 349  1.0+  0.5+  

950505 360  0.0   0.6+    951117 691  1.0-  0.8+    051224 349  1.1+  0.8+  

950505 360  0.2-  0.6+    951117 801 (1.8-  2.6-)   051224 349  1.6+  0.1+  

950505 360  0.6-  0.7+    951117 801 (3.4+  0.5-)   051225 568  1.5+  0.2+  

950508 360  0.3-  0.1+    951210 360  1.4-  0.1+    051225 568 (2.2+  0.0 ) 

950508 360  0.4-  0.1+    951210 360  0.8-  0.1-    051225 568 (2.3+  0.2-) 

950517 897  0.2+  1.0+    951231 691  0.4-  0.3+    051225 568 (2.8+  0.2-) 

950517 897  0.6-  1.0+    951231 691  0.2-  0.1+    051227 349  1.8+  0.5-  

950517 897  0.2+  0.2+    951231 691  0.8-  0.0     051227 349 (2.3+  0.4-) 

950522 359  0.2-  2.1+    1996/                     051227 349  1.9+  0.8-  

950522 897  1.0+  0.9+    961118 691 (2.6-  0.2+)   051228 703  0.4-  1.7+  

950522 359  1.0+  0.3+    961118 691 (3.5-  0.1+)   051228 703  1.5+  1.3+  

950522 897  0.8+  0.8+    961215 691 (3.9-  0.5+)   051228 703  0.1-  1.5+  

950522 359 (0.8+  4.0-)   961215 691 (4.2-  0.2+)   051228 703  0.1+  0.6+  

950522 372  0.2+  0.0     961215 691 (4.9-  0.4-)   051229 H06  1.2+  0.4+  

950523 372  0.1+  0.2+    1997/                     051229 H06  0.9+  0.3+  

950523 360  0.7+  0.0     971229 568 (3.5-  0.5+)   051229 H06  0.6+  0.4+  

950523 372  0.4+  0.8+    971230 568 (3.8-  0.2-)   051230 H06  1.5+  0.7+  

950523 360  0.6+  0.0     2000/                     051230 H06  1.5+  0.1-  

950526 367  0.1-  0.0     000204 557  0.9-  0.5+    051230 H06  0.4+  1.3+  

950526 367  0.1+  0.0     000204 557  0.1+  1.4+    051230 703  1.7-  0.9+  

950526 367  0.0   0.2-    000204 557  0.4-  0.9+    051230 703  1.3-  1.5+  

950526 372  0.4+  0.4-    000204 557  1.0-  0.0     051230 703  0.2-  1.3+  

950527 410  0.6+  0.8+    000210 691  0.3-  0.2+    051230 703  0.5+  0.3+  

950527 410  0.4+  1.1+    000210 691  0.9+  0.7-    2006/                   

950527 410  0.8+  0.4+    000211 691  0.7-  0.3-    060105 H06 (2.6+  0.5+) 

950527 402  0.6+  0.5+    000211 691  0.5-  0.4-    060105 H06  0.3+  1.4+  

950527 402  0.1+  0.2+    000211 691  0.1-  0.4-    060105 703  0.1+  0.8+  

950527 372  0.5-  0.8-    000302 360  0.3+  0.5+    060105 703  1.1-  1.9+  

950531 402  0.3-  0.3+    000302 360  0.1-  0.4+    060105 703 (2.5+  0.0 ) 

950531 402  0.4-  0.1+    000303 561  0.0   0.1+    060105 703  1.5-  1.7+  

950601 897  0.4-  0.3-    000303 561  0.1+  0.8+    060107 D83  0.3-  0.9+  

950601 897  1.1-  0.4-    000303 561  0.3-  0.9+    060107 D83  0.9+  1.1+  

950601 360  0.6-  0.4-    000304 704  0.0   0.9+    060107 D83  2.0-  1.6+  

950601 360  0.4-  0.7-    000304 704  0.1+  0.1+    060110 704  1.1+  0.5+  

950601 402  0.2-  0.4+    000304 704  0.6-  0.0     060110 704  2.0+  0.5-  

950601 402  0.0   0.1+    000304 704  0.3+  0.3+    060110 704  1.4+  1.3+  

950601 372  0.4-  1.6-    000304 704  0.4+  0.6+    060110 704  1.4+  0.9+  

950605 360  0.6-  1.0-    000312 704  0.4-  0.8+    060121 691 (2.8-  0.8+) 

950605 360  0.8-  0.8-    000312 704  0.0   0.6+    060121 691  0.6+  0.9+  

950605 372  0.5+  0.9-    000312 704  0.1+  0.6+    060121 691  0.9+  0.5+  

950621 372  0.5-  0.1-    000312 704  0.4+  0.8+    060121 349  0.2+  1.1+  

950624 367  1.0+  0.8-    000312 704  0.0   1.1+    060121 349  0.2+  0.7+  

950624 367  1.2+  1.6-    000314 402  0.4-  0.1-    060121 349  0.4+  0.5+  

950624 367  1.4+  2.0-    000314 402  0.5-  0.2+    060126 703  2.0-  1.2+  

950629 372  0.0   0.2-    000314 402  0.5-  0.0     060126 703 (2.2-  2.3+) 

950708 372  0.4+  0.6+    000328 704  0.2-  0.9+    060126 703 (2.2-  2.0+) 

950709 372  0.2+  1.1+    000328 704  0.3+  0.8+    060126 703  0.7-  0.8+  

950709 360  0.7+  1.0-    000328 704  0.5+  0.7+    060127 I77  1.3+  0.3-  

950709 360  0.6+  1.2-    000330 360  0.2+  0.1+    060211 349  0.1+  0.2+  

950714 897  0.6+  0.2-    000330 360  0.1+  0.2+    060211 349  0.2+  0.4+  

950714 897  0.7+  1.9-    000424 360  0.2+  0.3-    060211 349  0.3+  0.3+  

950714 897  0.4+  1.3-    000424 360  0.3+  0.1-    060219 I77  1.8+  0.4-  

950723 897  2.1+  0.2+    000424 867  0.1+  0.2-    060219 I77  1.7+  0.4-  

950723 897  0.2+  1.2+    000424 867  0.3+  0.0     060219 I77 (2.2+  0.0 ) 

950725 372  0.9-  1.0+    000501 699  1.2+  0.8-    060224 H06  0.7+  1.1-  

950727 360  0.3-  0.5-    000501 699  1.0+  0.4-    060224 H06  0.1+  0.1-  

950727 360  0.3-  0.5-    000501 699  1.5+  0.6-    060225 704  0.5-  0.8+  

950731 360  0.1-  0.5-    000501 699  1.8+  1.0-    060225 704  0.2+  1.0-  

950731 360  0.3-  0.2-    000520 504  0.9+  0.5+    060225 704  0.7-  0.8+  

950731 372  0.5-  2.0+    000520 504  0.8+  0.6+    060225 703  0.6-  1.2+  

950802 323  0.0   0.1-    000520 504  0.6+  1.4-    060225 703 (2.8-  2.0+) 

950814 897  1.0-  0.5+    000520 504  0.3+  0.8-    060225 703  0.1-  0.5+  

950814 897  0.3+  0.2-    000529 360  0.9+  0.6-    060226 844  0.0   0.1-  

950815 323  0.5-  0.1-    000529 360  0.7+  0.8-    060226 844  0.1+  0.2+  

950816 360  0.5-  0.1+    2001/                     060226 844  0.2-  0.2-  

950816 360  0.5-  0.1+    010827 644  0.1-  0.4-    060226 844  0.2-  0.5-  

950818 360  0.1-  0.2-    010827 644  0.1-  0.2+    060227 H06  0.3-  0.5-  

950818 360  0.1-  0.1-    010827 644  0.2-  0.0     060227 H06  0.4+  0.5-  

950822 900  0.3+  0.1-    010828 360  0.2-  0.3-    060303 734  0.1-  0.5-  

950827 323 (1.0+  5.6+)   010828 360  0.7-  0.4-    060303 734  0.1+  0.7-  

950911 834 (2.6-  0.3+)   010828 360  0.5-  0.3-    060303 734  0.1-  0.5-  

950917 897  0.4-  0.8+    010831 402  0.4-  0.3-    060305 A11 (1.1+  3.4+) 

950917 897  1.4+  0.2-    010831 402  0.8-  0.7-    060305 A11 (2.3+  0.4+) 

950920 691  0.5-  1.0+    010926 683  1.0-  1.0+    060305 A11  0.6-  0.0   

950920 691  0.1-  1.0+    010926 683 (0.2-  3.0-)   060305 A11  0.6-  0.0   

950920 691  0.3-  0.9+    010926 683 (2.1-  2.8-)   060305 H06  0.5-  0.2-  

950921 897  0.4-  1.9+    010927 644  0.1+  0.5+    060305 H06  0.8-  0.1-  

951013 360  0.1+  1.1+    010927 644  0.0   0.7+    060305 H06  0.8-  0.2-  

951013 360  0.0   1.2+    010927 644  0.0   0.1+    060305 H06  0.6-  0.7-  

951014 410  1.2-  0.3+    011010 644  0.3-  1.2+    060310 349  0.5-  0.9-  

951014 410  0.2+  0.6+    011010 644  0.6-  1.0+    060310 349  0.2-  0.7-  

951014 410  0.7-  0.9-    011010 644  0.3+  0.5+    060311 H06  0.3-  1.2-  

951020 360  0.5+  1.4+    011010 644  0.9-  0.9+    060311 H06  0.6-  1.1-  

951020 360  1.0+  1.0+    011010 644  0.1-  0.5+    060314 349  0.5-  0.5-  

951020 410  1.8+  0.5-    011010 644  0.9-  0.7+    060314 349  0.5-  0.5-  

951020 410  1.7+  0.7+    011014 360  0.5-  0.3-    060314 349  0.3-  0.5-  

951020 410  1.0+  1.5+    011014 360  0.5-  0.3+    060324 H06  0.4-  1.0-  

951025 691  0.7-  1.4+    011016 644  0.2-  0.4+    060324 H06  1.3+  0.5-  

951025 691  0.8-  1.0+    011016 644  0.0   0.4+    060326 H06  1.6-  1.8-  

951025 360  0.9+  0.8+    011016 644  0.8+  0.5+    060326 H06  0.9-  1.5-  

951025 360  1.1+  1.4+    2005/                                             



NAKANO

         **** Don't distribute anyone except personal use only ****

                (C) Copyright 2006 OAA/ComputingSection

write mail from CFAD0::NAKANO on 2006-04-06 06:07:37(JST).

 



  71P/Clark

Epoch 2006 May 25.0 TT = JDT 2453880.5  

T 2006 June 6.76756 TT                                  Nakano

q   1.5620768            (2000.0)            P               Q

n   0.17861614     Peri.  208.73835     -0.03370628     +0.98925442

a   3.1226424      Node    59.65548     -0.88254416     +0.03734031

e   0.4997580      Incl.    9.48850     -0.46901993     -0.14135553

P   5.52

From 241 observations 1994-2005, mean residual 0".89.

   Nongravitational parameters A1 = +2.25 +/- 0.03, A2 = -0.3126 +/- 0.0014,

   A3 = -0.24 +/- 0.02.



NAKANO

         **** Don't distribute anyone except personal use only ****

                (C) Copyright 2006 OAA/ComputingSection

write mail from CFAD0::NAKANO on 2006-01-01 05:08:27(JST).







◎71Pの軌道と予報位置です



 上尾の門田健一氏は,12月24日にこの彗星の観測に成功し,27日にこれを確認

しました.氏の CCD全光度は,それぞれ,18.2等と18.1等でした.氏の光度は,

HICQ 2006の予報光度より1.5等級ほど暗いですが,彗星は,6月頃には10等級ま

で明るくなるでしょう.なお,門田氏の観測は,予報軌道(NK 933, HICQ 2006,

MPC 48382)から赤経方向に+400", 赤緯方向に-200"以上のずれがありました.

これは,儺にして -0.41日の補正量となります.儺が大きかったのは,彗星が

太陽から離れた時期の1996年と1997年の観測にウェイトをかけて,軌道改良した

ことによるのでしょう.



  71P/Clark

Epoch 2006 May 25.0 TT = JDT 2453880.5  

T 2006 June 6.76626 TT                                  Nakano

q   1.5620761            (2000.0)            P               Q

n   0.17861637     Peri.  208.73811     -0.03371070     +0.98925431

a   3.1226398      Node    59.65546     -0.88254436     +0.03733625

